EW0706 Weather Reports


Display with metric or nautical units.
time (UTC)temp
F
wind
direction
speed
MPH
gust
MPH
rain 1hr
in
rain 24hr
in
rain mn
in
humidity
%
barometer
mb
20260903183541 99 0.0 0.0 0.00 0.00 0.00 28 1012.4
20260903182540 99 0.0 0.0 0.00 0.00 0.00 28 1012.4
20260903181507 99 0.0 0.0 0.00 0.00 0.00 28 1012.8
20260903180506 98 0.0 0.0 0.00 0.00 0.00 30 1012.8
20260903175505 97 0.0 0.0 0.00 0.00 0.00 30 1012.8
20260903174433 97 0.0 0.0 0.00 0.00 0.00 32 1013.1
20260903173432 97 0.0 0.0 0.00 0.00 0.00 32 1013.1
20260903172431 96 0.0 0.0 0.00 0.00 0.00 34 1013.1
20260903171430 96 0.0 0.0 0.00 0.00 0.00 35 1013.1
20260903170430 95 0.0 0.0 0.00 0.00 0.00 36 1013.1
20260903165429 94 0.0 0.0 0.00 0.00 0.00 36 1013.1
20260903164427 94 0.0 0.0 0.00 0.00 0.00 36 1013.1
20260903163427 94 0.0 0.0 0.00 0.00 0.00 37 1013.1
20260903162425 94 0.0 0.0 0.00 0.00 0.00 37 1013.4
20260903161425 94 0.0 0.0 0.00 0.00 0.00 37 1013.1
20260903160424 93 0.0 0.0 0.00 0.00 0.00 38 1013.1
20260903155321 93 0.0 0.0 0.00 0.00 0.00 39 1013.4
20260903154320 92 0.0 0.0 0.00 0.00 0.00 40 1013.4
20260903153319 92 0.0 0.0 0.00 0.00 0.00 40 1013.4
20260903152318 91 0.0 0.0 0.00 0.00 0.00 40 1013.4
20260903151318 90 0.0 0.0 0.00 0.00 0.00 42 1013.4
20260903150317 90 0.0 0.0 0.00 0.00 0.00 42 1013.3
20260903145316 89 0.0 0.0 0.00 0.00 0.00 43 1013.3
20260903144315 89 0.0 0.0 0.00 0.00 0.00 43 1013.3
20260903143314 89 0.0 0.0 0.00 0.00 0.00 43 1013.3
20260903142313 88 0.0 0.0 0.00 0.00 0.00 44 1013.3
20260903141312 88 0.0 0.0 0.00 0.00 0.00 44 1013.3
20260903140311 86 0.0 0.0 0.00 0.00 0.00 44 1012.9
20260903135311 85 0.0 0.0 0.00 0.00 0.00 45 1012.8
20260903134310 84 0.0 0.0 0.00 0.00 0.00 45 1012.5
20260903133309 84 0.0 0.0 0.00 0.00 0.00 45 1012.5
20260903132308 84 0.0 0.0 0.00 0.00 0.00 44 1012.1
20260903131307 84 0.0 0.0 0.00 0.00 0.00 44 1012.2
20260903130306 84 0.0 0.0 0.00 0.00 0.00 45 1012.2
20260903125306 84 0.0 0.0 0.00 0.00 0.00 44 1012.2
20260903124233 85 0.0 0.0 0.00 0.00 0.00 44 1011.9
20260903123233 85 0.0 0.0 0.00 0.00 0.00 44 1011.9
20260903122231 85 0.0 0.0 0.00 0.00 0.00 43 1011.9
20260903121128 85 0.0 0.0 0.00 0.00 0.00 42 1011.9
20260903120057 85 0.0 0.0 0.00 0.00 0.00 42 1011.6
20260903115055 86 0.0 0.0 0.00 0.00 0.00 41 1011.6
20260903114055 86 0.0 0.0 0.00 0.00 0.00 40 1011.6
20260903113054 85 0.0 0.0 0.00 0.00 0.00 40 1011.6
20260903112053 85 0.0 0.0 0.00 0.00 0.00 39 1011.6
20260903111052 86 0.0 0.0 0.00 0.00 0.00 36 1011.6
20260903110051 86 0.0 0.0 0.00 0.00 0.00 35 1011.6
20260903105049 86 0.0 0.0 0.00 0.00 0.00 35 1011.3
20260903104048 87 0.0 0.0 0.00 0.00 0.00 33 1011.3
20260903103048 87 0.0 0.0 0.00 0.00 0.00 32 1011.6
20260903102047 87 0.0 0.0 0.00 0.00 0.00 32 1011.6
20260903101015 88 0.0 0.0 0.00 0.00 0.00 30 1011.3
20260903095943 88 0.0 0.0 0.00 0.00 0.00 30 1011.7
20260903094941 88 0.0 0.0 0.00 0.00 0.00 29 1011.7
20260903093940 88 0.0 0.0 0.00 0.00 0.00 28 1011.7
20260903092939 89 0.0 0.0 0.00 0.00 0.00 26 1011.6
20260903091939 88 0.0 0.0 0.00 0.00 0.00 25 1011.7
20260903090907 88 0.0 0.0 0.00 0.00 0.00 25 1011.7
20260903085906 88 0.0 0.0 0.00 0.00 0.00 25 1011.7
20260903084905 89 0.0 0.0 0.00 0.00 0.00 25 1011.3
20260903081423 89 0.0 0.0 0.00 0.00 0.00 24 1011.4
20260903080422 89 0.0 0.0 0.00 0.00 0.00 24 1011.3
20260903075421 89 0.0 0.0 0.00 0.00 0.00 25 1011.3
20260903074420 90 0.0 0.0 0.00 0.00 0.00 24 1011.3
20260903073348 90 0.0 0.0 0.00 0.00 0.00 25 1011.3
20260903072348 90 0.0 0.0 0.00 0.00 0.00 25 1011.4
20260903071347 91 0.0 0.0 0.00 0.00 0.00 26 1011.4
20260903070346 91 0.0 0.0 0.00 0.00 0.00 26 1011.4
20260903065314 91 0.0 0.0 0.00 0.00 0.00 27 1011.4
20260903064313 92 0.0 0.0 0.00 0.00 0.00 27 1011.4
20260903063312 93 0.0 0.0 0.00 0.00 0.00 27 1011.1
20260903062240 93 0.0 0.0 0.00 0.00 0.00 27 1011.1
20260903061239 94 0.0 0.0 0.00 0.00 0.00 27 1011.4
20260903060239 94 0.0 0.0 0.00 0.00 0.00 28 1011.4
20260903055238 94 0.0 0.0 0.00 0.00 0.00 29 1011.5
20260903051443 95 0.0 0.0 0.00 0.00 0.00 31 1011.4
20260903050442 95 0.0 0.0 0.00 0.00 0.00 31 1011.1
20260903045409 96 0.0 0.0 0.00 0.00 0.00 30 1011.1
20260903044409 96 0.0 0.0 0.00 0.00 0.00 30 1011.1
20260903043408 96 0.0 0.0 0.00 0.00 0.00 30 1011.1
20260903042407 96 0.0 0.0 0.00 0.00 0.00 30 1011.1
20260903041406 97 0.0 0.0 0.00 0.00 0.00 29 1011.1
20260903040334 97 0.0 0.0 0.00 0.00 0.00 29 1011.1
20260903035302 97 0.0 0.0 0.00 0.00 0.00 29 1011.0
20260903034300 97 0.0 0.0 0.00 0.00 0.00 29 1010.7
20260903033229 97 0.0 0.0 0.00 0.00 0.00 29 1010.6
20260903032228 98 0.0 0.0 0.00 0.00 0.00 28 1010.6
20260903031125 98 0.0 0.0 0.00 0.00 0.00 28 1010.3
20260903030124 98 0.0 0.0 0.00 0.00 0.00 28 1010.2
20260903025123 98 0.0 0.0 0.00 0.00 0.00 28 1010.2
20260903024122 98 0.0 0.0 0.00 0.00 0.00 27 1010.2
20260903023122 98 0.0 0.0 0.00 0.00 0.00 27 1010.2
20260903022121 99 0.0 0.0 0.00 0.00 0.00 27 1010.2
20260903021120 99 0.0 0.0 0.00 0.00 0.00 27 1009.9
20260903020017 99 0.0 0.0 0.00 0.00 0.00 26 1009.8
20260903014945 99 0.0 0.0 0.00 0.00 0.00 26 1009.8
20260903013944 100 0.0 0.0 0.00 0.00 0.00 26 1009.8
20260903012943 100 0.0 0.0 0.00 0.00 0.00 26 1009.5
20260903011912 100 0.0 0.0 0.00 0.00 0.00 26 1009.5
20260903010911 101 0.0 0.0 0.00 0.00 0.00 26 1009.5
20260903005910 102 0.0 0.0 0.00 0.00 0.00 26 1009.6
20260903004909 102 0.0 0.0 0.00 0.00 0.00 25 1009.6
20260903003908 102 0.0 0.0 0.00 0.00 0.00 25 1009.5
20260903002907 102 0.0 0.0 0.00 0.00 0.00 26 1009.9
20260903001906 102 0.0 0.0 0.00 0.00 0.00 25 1009.6
20260903000905 102 0.0 0.0 0.00 0.00 0.00 25 1009.9
20260902235833 103 0.0 0.0 0.00 0.00 0.00 24 1010.0
20260902234801 103 0.0 0.0 0.00 0.00 0.00 24 1010.0
20260902233800 103 0.0 0.0 0.00 0.00 0.00 24 1010.3
20260902232759 103 0.0 0.0 0.00 0.00 0.00 24 1010.3
20260902231759 102 0.0 0.0 0.00 0.00 0.00 24 1010.2
20260902230758 102 0.0 0.0 0.00 0.00 0.00 25 1010.2
20260902225757 103 0.0 0.0 0.00 0.00 0.00 24 1010.3
20260902224756 104 0.0 0.0 0.00 0.00 0.00 23 1010.7
20260902223756 103 0.0 0.0 0.00 0.00 0.00 24 1010.6
20260902222754 102 0.0 0.0 0.00 0.00 0.00 24 1011.0
20260902221754 102 0.0 0.0 0.00 0.00 0.00 23 1011.0
20260902220752 103 0.0 0.0 0.00 0.00 0.00 23 1011.0
20260902215752 102 0.0 0.0 0.00 0.00 0.00 23 1011.0
20260902214751 103 0.0 0.0 0.00 0.00 0.00 22 1011.4
20260902213750 102 0.0 0.0 0.00 0.00 0.00 23 1011.3
20260902212749 102 0.0 0.0 0.00 0.00 0.00 24 1011.7
20260902211748 104 0.0 0.0 0.00 0.00 0.00 22 1011.4
20260902210747 104 0.0 0.0 0.00 0.00 0.00 23 1011.8
20260902205746 103 0.0 0.0 0.00 0.00 0.00 23 1012.1
20260902204745 102 0.0 0.0 0.00 0.00 0.00 23 1012.0
20260902203744 103 0.0 0.0 0.00 0.00 0.00 22 1012.4
20260902202743 103 0.0 0.0 0.00 0.00 0.00 22 1012.5
20260902201741 103 0.0 0.0 0.00 0.00 0.00 23 1012.5
20260902200704 103 0.0 0.0 0.00 0.00 0.00 23 1012.8
20260902195703 102 0.0 0.0 0.00 0.00 0.00 25 1012.8
20260902194702 101 0.0 0.0 0.00 0.00 0.00 25 1013.1
20260902193701 102 0.0 0.0 0.00 0.00 0.00 25 1013.5
20260902192700 102 0.0 0.0 0.00 0.00 0.00 25 1013.5
20260902191700 102 0.0 0.0 0.00 0.00 0.00 26 1013.9
20260902190659 101 0.0 0.0 0.00 0.00 0.00 26 1013.9
20260902185658 101 0.0 0.0 0.00 0.00 0.00 26 1013.9
20260902184657 101 0.0 0.0 0.00 0.00 0.00 27 1014.2